Location: Ida Center
(41.8662°N, 83.5713°W)
Time: 21:20:59
(UTC+00:00)

Daily predictions for brighter satellites

Satellite Brightness Start Highest point End
(mag) Time Altitude Azimuth Time Altitude Azimuth Time Altitude Azimuth
BREEZE-M DEB (TANK) 4.3 22:18:51 10° WNW 22:23:27 79° SW 22:38:33 10° SE
Meteor 2-3 Rocket 3.9 22:32:50 10° N 22:38:40 84° W 22:44:24 10° S
CZ-4B R/B 4.2 22:38:22 10° NNW 22:40:44 18° WNW 22:43:07 10° WSW
Helios 1A Rocket 4.3 22:37:13 10° S 22:41:11 45° W 22:45:12 10° NNW
ALOS 3.7 22:39:14 10° S 22:43:40 43° W 22:48:07 10° NNW
Meteor 2-2 Rocket 4.3 22:39:13 10° S 22:45:03 74° E 22:50:48 10° NNE
Cosmos 773 Rocket 4.3 22:40:52 10° SSW 22:46:01 72° WNW 22:51:14 10° NNE
NOSS 2-3 (C) 4.5 22:42:36 10° S 22:46:25 32° ESE 22:50:40 10° NE
IRS-1C Rocket 4.1 22:41:45 10° SSE 22:47:00 74° ENE 22:52:17 10° N
PSLV R/B 2.8 22:45:25 10° W 22:47:56 65° S 22:50:26 10° ESE
Okean-O 3.2 22:45:21 10° SE 22:49:24 36° ENE 22:53:29 10° N
SMAP 3.1 22:45:04 10° SSE 22:49:39 63° ENE 22:54:16 10° N
Cosmos 1805 Rocket 3.6 22:45:43 10° N 22:50:01 56° E 22:54:19 10° SSE
Cosmos 1743 Rocket 4.5 22:46:02 10° NNW 22:50:18 54° W 22:54:34 10° S
Feng Yun 1-1 Rocket 4.2 22:51:28 10° SSE 22:57:04 81° ENE 23:02:34 10° NNW
Cosmos 1869 3.2 22:53:18 10° S 22:57:14 81° E 23:01:12 10° N
Cosmos 923 Rocket 4.2 22:56:27 10° S 23:01:28 51° ESE 23:06:31 10° NNE
Cosmos 2219 3.9 22:59:42 10° NNW 23:05:14 59° WSW 23:10:43 10° S
Cosmos 1356 Rocket 3.4 23:02:33 10° S 23:06:42 86° E 23:10:57 10° N
CORIOLIS 4.1 23:02:34 10° SSE 23:07:57 80° ENE 23:13:25 10° NNW
Cosmos 2034 Rocket 4.4 23:02:36 10° N 23:08:33 40° ENE 23:14:28 10° SE
H-2A R/B 2.7 23:06:45 10° SSE 23:10:35 88° WSW 23:14:25 10° NNW
APEX 4.2 23:08:18 10° SSE 23:11:13 22° ESE 23:12:24 18° E
Okean O Rocket 4.4 23:09:59 10° SSW 23:13:27 23° W 23:16:56 10° NW
Cosmos 1980 Rocket 2.8 23:09:07 10° SSE 23:14:09 34° ESE 23:18:51 12° NE
ERBS 3.3 23:12:50 10° WSW 23:15:59 39° NW 23:18:43 13° NNE
Cosmos 1633 Rocket 3.3 23:13:30 10° N 23:17:46 47° ENE 23:22:02 10° SSE
Cosmos 2297 Rocket 2.6 23:15:37 10° NNW 23:21:14 67° WSW 23:26:49 10° SSE
Lacrosse 4 Rocket 1.5 23:17:27 10° SSW 23:21:32 75° WNW 23:25:36 10° NNE
Cosmos 2227 Rocket 2.5 23:15:54 10° NNW 23:21:33 72° WSW 23:27:10 10° SSE
Cosmos 1633 2.4 23:19:51 10° N 23:23:30 75° E 23:27:07 10° SSE
CZ-4 R/B 1.9 23:20:17 10° SE 23:24:06 37° ENE 23:27:52 10° N
BREEZE-M DEB (TANK) 3.8 23:17:57 10° W 23:25:57 36° NNW 23:28:05 19° NE
Cosmos 1151 Rocket 3.4 23:22:21 10° SSE 23:26:28 43° E 23:30:37 10° NNE
Sich 1 3.1 23:22:12 10° N 23:26:35 81° W 23:30:58 10° S
Cosmos 1328 Rocket 3.7 23:26:22 10° S 23:30:39 53° E 23:34:57 10° NNE
Cosmos 1666 Rocket 3.4 23:26:59 10° N 23:31:22 83° E 23:35:41 10° S
Tsikada Rocket 4.3 23:25:59 10° SSE 23:31:56 44° E 23:37:58 10° NNE
SeaSat 1 2.4 23:27:10 10° SE 23:32:02 67° ENE 23:36:56 10° NNW
COSMO-SKYMED 1 2.6 23:27:48 10° NNE 23:32:07 59° E 23:36:23 10° S
Cosmos 1933 Rocket 4.4 23:28:35 10° NNE 23:32:18 27° ENE 23:33:45 22° ESE
Cosmos 1515 Rocket 4.2 23:29:00 10° SSE 23:32:58 34° E 23:35:16 20° NE
Envisat 2.9 23:31:28 10° SSE 23:36:33 86° ENE 23:41:39 10° NNW
BREEZE-M DEB (TANK) 3.8 23:36:15 10° NW 23:38:25 18° N 23:38:33 18° N
USA 215 4.3 23:36:51 20° ENE 23:39:57 28° NNE 23:45:20 10° NW
NOAA 12 4.4 23:35:03 10° S 23:40:21 72° WSW 23:45:42 10° NNW
Cosmos 2263 Rocket 3.3 23:36:13 10° N 23:40:21 22° NE 23:40:21 22° NE
GPS 2-04 Rocket1 4.2 23:38:04 10° SSW 23:40:31 19° SSE 23:41:22 17° SE
Cosmos 2369 3.9 23:35:08 10° SSW 23:40:47 74° WNW 23:46:30 10° NNE
FengYun 1-2 T 4.1 23:37:24 10° SSE 23:42:54 74° ENE 23:48:24 10° N
GEOS 3 Rocket 4.2 23:41:24 11° NNE 23:46:16 57° NW 23:51:24 10° SW
Cosmos 1933 3.8 23:43:07 10° SSE 23:46:53 38° E 23:46:54 38° E
NOSS 2-3 (E) 4.0 23:44:58 10° SW 23:49:15 66° NW 23:52:40 20° NNE
ATLAS 5 CENTAUR R/B 3.7 23:45:04 10° NW 23:50:43 43° WSW 23:57:02 10° S
Cosmos 2082 4.0 23:45:38 10° NNW 23:51:12 67° WSW 23:56:46 10° SSE
YAOGAN 6 2.4 23:49:07 10° SSE 23:52:36 87° WSW 23:56:07 10° NNW
Cosmos 1697 Rocket 3.1 23:47:06 10° SW 23:52:42 64° WNW 23:58:19 10° NNE
Cosmos 724 4.1 23:47:36 10° NNW 23:53:27 73° NE 23:58:50 12° SE
BREEZE-M R/B 4.5 23:51:35 10° SSW 23:55:32 21° SE 23:55:34 21° SE
Cosmos 1862 4.0 23:51:59 10° NNW 23:55:53 55° W 23:59:46 10° S
